Regional Weather Roundup
Issued by NWS Bismarck, ND

Home | Current Version | Previous Version | Text Only | Print | Product List | Glossary On
Versions: 1 2 3 4 5 6 7 8 9 10 11 12 13 14 15 16 17 18 19 20 21 22 23 24 25 26 27 28 29 30 31 32 33 34 35 36 37 38 39 40 41 42 43 44 45 46 47 48 49 50
000
ASUS43 KBIS 230302
RWRBIS

NWR BROADCAST TEXT
NATIONAL WEATHER SERVICE BISMARCK ND
1000 PM CDT WED MAR 22 2017

NOTE: "FAIR" INDICATES FEW OR NO CLOUDS BELOW 12,000 FEET WITH NO
SIGNIFICANT WEATHER AND/OR OBSTRUCTIONS TO VISIBILITY.


CITY           SKY/WX    TMP DP  RH WIND       PRES   REMARKS
WILLISTON      FAIR      36  31  82 CALM      29.78R
MINOT          FAIR      36  29  75 SE10      29.83S
MINOT AFB      FAIR      33  29  85 S14       29.82F
BISMARCK       FAIR      35  28  75 SE9       29.89F
DICKINSON      FAIR      40  33  76 S13       29.76F
GARRISON         N/A     34  29  82 SE14      29.83S
HETTINGER ARPT FAIR      42  33  70 E10       29.80R
JAMESTOWN      FAIR      32  24  72 SE17      29.98S
HAZEN          FAIR      39  30  70 S18G28    29.84F
LINTON           N/A     34  30  86 SE18G29   29.90S
MANDAN         FAIR      34  28  80 SE14      29.88S
RUGBY            N/A     30  28  93 SE17G28   29.89S WCI  18
STANLEY        FAIR      34  34 100 S7        29.82S
TIOGA          FAIR      34  34 100 CALM      29.80S
$$

CITY           SKY/WX    TMP DP  RH WIND       PRES   REMARKS
GRAND FORKS    CLOUDY    33  19  56 S15       30.07F
GRAND FORKS AF CLOUDY    32  23  70 S18       30.07S
DEVILS LAKE    FAIR      28  25  88 SE16      29.98F WCI  16
FARGO          CLOUDY    35  24  64 S21       30.09F
GRAFTON        CLOUDY    30  23  74 S13       30.10F
GWINNER        CLEAR     32  27  80 MISG      30.05S
ROLLA          CLOUDY    27  27 100 S17G24    29.91F WCI  14
$$

CITY           SKY/WX    TMP DP  RH WIND       PRES   REMARKS
ABERDEEN       FAIR      34  24  67 SE13      30.01F
MOBRIDGE       FAIR      41  26  55 SE18G28   29.84F
BUFFALO          N/A     51  38  60 N6        29.72R
RAPID CITY     FAIR      46  39  76 W3        29.78S
GLASGOW        FAIR      45  36  70 SE10      29.74R
SIDNEY         FAIR      40  33  76 SW5       29.78R
WOLF POINT     FAIR      44  37  76 CALM      29.76R
GLENDIVE       FAIR      43  36  76 CALM      29.80R
MILES CITY     FAIR      51  37  58 SE3       29.76S
BAKER          MOCLDY    45  37  73 CALM      29.79R
$$

CITY           SKY/WX    TMP DP  RH WIND       PRES   REMARKS
BILLINGS       MOCLDY    51  39  63 NE8       29.77R
GREAT FALLS    FAIR      43  23  45 W5        29.77R
$$




USA.gov is the U.S. government's official web portal to all federal, state and local government web resources and services.